Anoka County, MN

3:08 PM CDT on June 26, 2017 (GMT -0500)
Anoka County / Blaine Airport

Weather History for KANE - September, 2012

Change the Weather History Date:

Thursday, September 6, 2012

  Actual Average Record
Temperature  
Mean Temperature 66 °F -  
Max Temperature 78 °F 75 °F 91 °F (2013)
Min Temperature 53 °F 55 °F 46 °F (1999)
Growing Degree Days 16 (Base 50)    
Moisture  
Dew Point 52 °F    
Average Humidity 71    
Maximum Humidity 88    
Minimum Humidity 30    
Precipitation  
Precipitation 0.00 in - - ()
Sea Level Pressure  
Sea Level Pressure 29.92 in    
Wind  
Wind Speed 2 mph (ENE)    
Max Wind Speed 12 mph    
Max Gust Speed 12 mph    
Visibility 10 miles    
Events Rain    
Averages and records for this station are not official NWS values.
T = Trace of Precipitation, MM = Missing Value Source: NWS Daily Summary

Daily Weather History Graph

Daily Weather History Graph

Search for Another Location

Airport or City:

Trip Planner

Search our weather history database for the weather conditions in past years. The results will help you decide how hot, cold, wet, or windy it might be!

Date:

Astronomy

Sep. 06, 2012 Rise Set
Actual Time 6:41 AM CDT 7:39 PM CDT
Civil Twilight 6:11 AM CDT 8:09 PM CDT
Nautical Twilight 5:35 AM CDT 8:45 PM CDT
Astronomical Twilight 4:57 AM CDT 9:23 PM CDT
Moon 10:31 PM CDT (9/6) 1:00 PM CDT (9/6)
Length of Visible Light 13h 58m
Length of Day
12h 58m
Waning Gibbous, 67% of the Moon is Illuminated
Sep 6
Waning Gibbous
Sep 8
Last Quarter
Sep 15
New
Sep 22
First Quarter
Sep 29
Full

Hourly Weather History & Observations

Time (CDT) Temp. Dew Point Humidity Pressure Visibility Wind Dir Wind Speed Gust Speed Precip Events Conditions
12:14 AM 59.0 °F 48.2 °F 67% 29.91 in 10.0 mi Calm Calm - N/A   Clear
12:34 AM 57.2 °F 48.2 °F 72% 29.91 in 10.0 mi Calm Calm - N/A   Clear
12:53 AM 57.2 °F 48.2 °F 72% 29.91 in 10.0 mi Calm Calm - N/A   Clear
1:14 AM 57.2 °F 48.2 °F 72% 29.91 in 10.0 mi Calm Calm - N/A   Clear
1:34 AM 57.2 °F 48.2 °F 72% 29.92 in 10.0 mi Calm Calm - N/A   Clear
1:53 AM 55.4 °F 48.2 °F 77% 29.92 in 10.0 mi Calm Calm - N/A   Clear
2:14 AM 55.4 °F 50.0 °F 82% 29.92 in 10.0 mi Calm Calm - N/A   Clear
2:34 AM 55.4 °F 48.2 °F 77% 29.92 in 10.0 mi Calm Calm - N/A   Clear
2:54 AM 57.2 °F 50.0 °F 77% 29.92 in 10.0 mi Calm Calm - N/A   Clear
3:14 AM 55.4 °F 50.0 °F 82% 29.92 in 10.0 mi Calm Calm - N/A   Clear
3:34 AM 55.4 °F 48.2 °F 77% 29.93 in 10.0 mi Calm Calm - N/A   Clear
3:54 AM 55.4 °F 48.2 °F 77% 29.93 in 10.0 mi Calm Calm - N/A   Clear
4:14 AM 55.4 °F 50.0 °F 82% 29.93 in 10.0 mi Calm Calm - N/A   Clear
4:34 AM 55.4 °F 50.0 °F 82% 29.93 in 10.0 mi Calm Calm - N/A   Clear
4:54 AM 53.6 °F 48.2 °F 82% 29.94 in 10.0 mi Calm Calm - N/A   Clear
5:14 AM 53.6 °F 50.0 °F 88% 29.94 in 10.0 mi Calm Calm - N/A   Clear
5:34 AM 53.6 °F 50.0 °F 88% 29.94 in 10.0 mi Calm Calm - N/A   Clear
5:54 AM 53.6 °F 48.2 °F 82% 29.94 in 10.0 mi Calm Calm - N/A   Clear
6:14 AM 55.4 °F 48.2 °F 77% 29.94 in 10.0 mi Calm Calm - N/A   Clear
6:34 AM 55.4 °F 48.2 °F 77% 29.95 in 10.0 mi Calm Calm - N/A   Clear
6:45 AM 55.4 °F 50.0 °F 82% 29.95 in 10.0 mi Calm Calm - N/A   Clear
6:53 AM 55.4 °F 50.0 °F 82% 29.96 in 10.0 mi Calm Calm - N/A   Clear
7:45 AM 59.0 °F 51.8 °F 77% 29.97 in 10.0 mi Calm Calm - N/A   Clear
8:45 AM 66.2 °F 50.0 °F 56% 29.97 in 10.0 mi WSW 6.9 mph - N/A   Clear
9:45 AM 71.6 °F 50.0 °F 46% 29.97 in 10.0 mi WSW 6.9 mph - N/A   Clear
10:45 AM 75.2 °F 46.4 °F 36% 29.96 in 10.0 mi West 5.8 mph - N/A   Clear
11:45 AM 78.8 °F 44.6 °F 30% 29.95 in 10.0 mi SSW 9.2 mph - N/A   Scattered Clouds
12:45 PM 78.8 °F 44.6 °F 30% 29.94 in 10.0 mi SW 11.5 mph - N/A   Scattered Clouds
1:50 PM 78.8 °F 44.6 °F 30% 29.93 in 10.0 mi South 10.4 mph - N/A   Scattered Clouds
3:45 PM 78.8 °F 44.6 °F 30% 29.89 in 10.0 mi WNW 4.6 mph - N/A   Mostly Cloudy
4:45 PM 75.2 °F 51.8 °F 44% 29.89 in 10.0 mi Calm Calm - N/A Rain Light Rain
5:45 PM 69.8 °F 59.0 °F 68% 29.92 in 7.0 mi Calm Calm - N/A Rain Light Rain
6:45 PM 66.2 °F 62.6 °F 88% 29.91 in 10.0 mi ENE 4.6 mph - N/A   Overcast
7:50 PM 66.2 °F 62.6 °F 88% 29.91 in 10.0 mi East 3.5 mph - N/A   Overcast
8:45 PM 66.2 °F 60.8 °F 83% 29.90 in 10.0 mi NE 3.5 mph - N/A   Overcast
9:14 PM 66.2 °F 60.8 °F 83% 29.90 in 10.0 mi East 3.5 mph - N/A   Overcast
9:34 PM 66.2 °F 59.0 °F 78% 29.89 in 10.0 mi ESE 3.5 mph - N/A   Overcast
9:54 PM 66.2 °F 59.0 °F 78% 29.89 in 10.0 mi SE 4.6 mph - N/A   Mostly Cloudy
10:13 PM 64.4 °F 60.8 °F 88% 29.89 in 10.0 mi Calm Calm - N/A   Mostly Cloudy
10:34 PM 66.2 °F 55.4 °F 68% 29.91 in 10.0 mi North 6.9 mph 11.5 mph N/A   Overcast
10:54 PM 66.2 °F 55.4 °F 68% 29.92 in 10.0 mi North 8.1 mph - N/A Rain Light Rain
11:13 PM 64.4 °F 55.4 °F 73% 29.92 in 10.0 mi NNE 10.4 mph - N/A   Overcast
11:34 PM 64.4 °F 55.4 °F 73% 29.91 in 10.0 mi NE 9.2 mph - N/A   Light Drizzle
11:54 PM 62.6 °F 57.2 °F 82% 29.91 in 10.0 mi ENE 6.9 mph - N/A Rain Light Rain